Исфана

Киргизия     39°50′18″N   69°31′54″E
В апреле 2022 года жителям России запретили посещать сайт meteo.paraplan.net по решению Генеральной прокуратуры. Аудитория сайта уменьшилась в 10 раз. Владельцы сайта не видят смысла в поддержке погодного сервера в таких условиях. Сайт будет закрыт в октябре.
темп.,
°C
ветер,
м/с
пор.,
м/с
влажн.,
%
обл.,
%
осадки,
мм/ч
давл.,
гПа
погр.,
м
26 сентября, пн
пн2600:00+12ю11370 0.0 101711
03:00+11ю11380 0.0 101711
06:00+10ююз11400 0.0 101810
09:00+16ю00270 0.0 1019102
12:00+19ссз32210 0.0 10181073
15:00+20ссз43170 0.0 10171743
18:00+19ссз33180 0.0 10181351
21:00+15зюз33230 0.0 102131
27 сентября, вт
вт2700:00+12зюз22260 0.0 102117
03:00+10зюз12370 0.0 102112
06:00+8з12490 0.0 102111
09:00+12ссз11400 0.0 1020145
12:00+15ссз32390 0.0 1019666
15:00+15ссз32380 0.0 1017792
18:00+14сз32370 0.0 1018653
21:00+11з22420 0.0 101918
28 сентября, ср
ср2800:00+9з11420 0.0 101812
03:00+8сз01420 0.0 101711
06:00+8ююз01420 0.0 101611
09:00+12сз01300 0.0 1016124
12:00+15ссз32250 0.0 1016656
15:00+15ссз32245 0.0 1015730
18:00+14сз21255 0.0 1015521
21:00+11ююз013213 0.0 101612
29 сентября, чт
чт2900:00+10юв11350 0.0 101511
03:00+9всв01380 0.0 101412
06:00+8юв11400 0.0 101411
09:00+13сз11295 0.0 1014121
12:00+16с31255 0.0 1014617
15:00+17ссз322396 0.0 1013808
18:00+16ссз2124100 0.0 1013481
21:00+12юз113298 0.0 101412
30 сентября, пт
пт3000:00+13св0131100 0.0 101316
03:00+10ююз11365 0.0 101312
06:00+10ю2235100 0.0 101411
09:00+13з112795 0.0 1014150
12:00+15ссз3225100 0.0 1015681
15:00+15сз3226100 0.0 1015734
18:00+13зсз222996 0.0 1017688
21:00+12юз1132100 0.0 101723